[[{"header":{"parameterUnit":"m.s-1","parameterCategory":1,"la1":30.2991,"la2":30.254,"lo1":-89.0895,"lo2":-89.0444,"dy":0.0017,"dx":0.0017,"nx":28,"ny":28,"refTime":"2025-04-16T21:00:00:Z","depth":0,"parameterNumber":2,"parameterNumberName":"U-component_of_WINDS"},"data":[0,0,0,0,0,0,0,0,0,0,0,0,0,0,0,0,0,0,0,0,0,0,0,0,0,0,0,0,0,0,0,0,0,0,0,0,0,0,0,0,0,0,0,0,0,0,0,0,0,0,0,0,0,0,0,0,0,0,-1.8727,-1.8728,0,-1.8781,-1.8782,-1.8783,-1.8818,-1.8818,-1.8818,-1.8819,-1.8875,-1.8876,-1.8877,0,0,0,0,0,0,0,0,0,0,0,0,0,-1.8655,-1.8656,-1.8727,-1.8728,-1.8728,-1.8781,-1.8782,-1.8783,-1.8818,-1.8818,-1.8818,-1.8819,-1.8874,-1.8876,-1.8877,0,0,0,0,0,0,0,0,0,0,0,0,0,-1.8695,-1.8656,-1.8727,-1.8752,-1.8755,-1.8781,-1.8782,-1.8783,-1.8818,-1.8818,-1.8818,-1.8819,-1.8874,-1.8876,-1.8878,-1.8883,0,0,-1.8883,-1.8884,0,0,0,0,0,0,0,0,-1.8693,-1.8698,-1.8748,-1.875,-1.8754,-1.8793,-1.8777,-1.8816,-1.8818,-1.8794,-1.8819,-1.8819,-1.8847,-1.8851,-1.8861,-1.8885,-1.8888,-1.8884,-1.8885,-1.8886,-1.8886,0,0,0,0,0,0,0,-1.869,-1.8696,-1.8748,-1.8748,-1.8752,-1.8761,-1.8767,-1.8785,-1.8818,-1.8796,-1.8799,-1.8805,-1.8849,-1.8859,-1.8863,-1.8889,-1.8884,-1.8885,-1.8886,-1.8887,-1.8921,-1.8921,0,0,0,0,0,0,-1.8683,-1.8693,-1.8747,-1.875,-1.8723,-1.8762,-1.8769,-1.878,-1.8818,-1.8824,-1.8804,-1.8806,-1.8856,-1.886,-1.8865,-1.8874,-1.8886,-1.8887,-1.8889,-1.8921,-1.8921,-1.8921,0,0,0,0,0,0,-1.8681,-1.8688,-1.8745,-1.8722,-1.873,-1.8763,-1.8775,-1.8781,-1.8791,-1.8824,-1.8831,-1.8808,-1.8856,-1.8862,-1.8878,-1.8876,-1.8888,-1.889,-1.8922,-1.8921,-1.8921,-1.8891,0,0,0,0,0,0,-1.8679,-1.8687,-1.8689,-1.8722,-1.8731,-1.8757,-1.8775,-1.8782,-1.8794,-1.8797,-1.883,-1.8835,-1.8857,-1.8875,-1.888,-1.8879,-1.8892,-1.8922,-1.8922,-1.8921,-1.8892,-1.889,-1.8888,0,0,0,0,0,-1.8676,-1.8678,-1.8689,-1.8695,-1.8734,-1.8756,-1.8762,-1.8786,-1.8794,-1.8796,-1.8818,-1.8834,-1.8876,-1.8876,-1.8882,-1.8882,-1.8922,-1.8922,-1.8921,-1.8894,-1.889,-1.8888,0,0,0,0,0,0,-1.8643,-1.8683,-1.8695,-1.8707,-1.8728,-1.8762,-1.8766,-1.8782,-1.8801,-1.8803,-1.8833,-1.884,-1.8853,-1.8869,-1.8869,-1.8889,-1.8901,-1.8902,-1.8878,-1.8875,-1.8873,-1.8868,-1.8893,0,0,0,0,0,-1.8637,-1.8652,-1.8686,-1.8693,-1.8703,-1.8733,-1.8743,-1.876,-1.8783,-1.8792,-1.8815,-1.8837,-1.8855,-1.8866,-1.8885,-1.8895,-1.8903,-1.8898,-1.8896,-1.8893,-1.8893,-1.8901,-1.8899,-1.8919,-1.8919,-1.8919,0,0,-1.8625,-1.8649,-1.8656,-1.8687,-1.8705,-1.872,-1.874,-1.8754,-1.8765,-1.8795,-1.8811,-1.8829,-1.8855,-1.8869,-1.8876,-1.8883,-1.889,-1.8893,-1.8891,-1.8892,-1.89,-1.8898,-1.8896,-1.8919,-1.8919,-1.8919,0,0,-1.8611,-1.863,-1.8638,-1.8656,-1.8684,-1.8704,-1.8706,-1.8738,-1.8751,-1.8768,-1.879,-1.8804,-1.8835,-1.8853,-1.8866,-1.8859,-1.8875,-1.8865,-1.8851,-1.8858,-1.8857,-1.8856,-1.8853,-1.8852,-1.8865,-1.8865,-1.8865,0,-1.8592,-1.8614,-1.8641,-1.8654,-1.8667,-1.8695,-1.8704,-1.872,-1.8752,-1.8761,-1.8769,-1.8808,-1.8827,-1.8846,-1.8844,-1.8854,-1.8858,-1.8861,-1.8855,-1.8854,-1.8853,-1.8851,-1.885,-1.8863,-1.8863,-1.8863,-1.8864,0,-1.859,-1.8606,-1.861,-1.864,-1.8654,-1.8665,-1.8693,-1.8704,-1.8721,-1.874,-1.8758,-1.8783,-1.8807,-1.8813,-1.8829,-1.8834,-1.8837,-1.8849,-1.8861,-1.8849,-1.8848,-1.8848,-1.8861,-1.8862,-1.8862,-1.8862,0,0,-1.8555,-1.8601,-1.8601,-1.8616,-1.8649,-1.8661,-1.8674,-1.8698,-1.8707,-1.8728,-1.874,-1.8766,-1.8777,-1.8792,-1.8811,-1.8817,-1.8811,-1.8829,-1.883,-1.8824,-1.8818,-1.8808,-1.8807,-1.8822,-1.8822,-1.8822,-1.8816,0,-1.8545,-1.8569,-1.8594,-1.8609,-1.8624,-1.8651,-1.8662,-1.8684,-1.8702,-1.8718,-1.8739,-1.8757,-1.8771,-1.878,-1.8787,-1.881,-1.881,-1.8811,-1.8833,-1.8833,-1.8825,-1.8806,-1.8796,-1.8789,-1.8816,-1.8815,-1.8815,0,-1.8536,-1.8556,-1.8573,-1.8605,-1.8612,-1.8622,-1.8646,-1.8661,-1.8686,-1.87,-1.8717,-1.8736,-1.8752,-1.8763,-1.8785,-1.8785,-1.8796,-1.8809,-1.8809,-1.8812,-1.8823,-1.8808,-1.8787,-1.8786,-1.8815,-1.8815,-1.8815,0,-1.8508,-1.854,-1.8554,-1.8566,-1.8604,-1.861,-1.8626,-1.8652,-1.8665,-1.8686,-1.8695,-1.8718,-1.873,-1.8748,-1.8774,-1.878,-1.8793,-1.8807,-1.8805,-1.8804,-1.8806,-1.8805,-1.8786,-1.8814,-1.8814,-1.8814,-1.8814,0,-1.8494,-1.8503,-1.8542,-1.8551,-1.8562,-1.8591,-1.8602,-1.862,-1.8643,-1.8657,-1.8682,-1.8694,-1.8727,-1.8744,-1.8764,-1.8779,-1.8785,-1.8796,-1.8802,-1.8794,-1.8792,-1.8801,-1.8802,-1.8814,-1.8814,-1.8814,-1.8814,0,-1.8464,-1.8491,-1.8508,-1.8543,-1.8552,-1.8559,-1.8589,-1.8599,-1.8619,-1.8636,-1.8641,-1.8674,-1.8694,-1.8722,-1.8751,-1.8765,-1.8778,-1.8786,-1.8769,-1.8772,-1.8769,-1.8768,-1.8754,-1.8753,-1.8781,-1.8781,-1.8781,0,-1.8453,-1.8461,-1.8496,-1.8507,-1.8522,-1.8539,-1.8552,-1.8582,-1.8595,-1.8625,-1.8631,-1.8654,-1.8673,-1.8705,-1.8731,-1.8754,-1.8763,-1.8757,-1.8767,-1.8759,-1.8763,-1.8762,-1.8763,-1.8754,-1.8753,-1.8753,-1.8753,0,-1.843,-1.8443,-1.8461,-1.8484,-1.85,-1.8519,-1.854,-1.8547,-1.8581,-1.8595,-1.8616,-1.8631,-1.8661,-1.8683,-1.871,-1.8727,-1.8745,-1.8749,-1.875,-1.8742,-1.8731,-1.8737,-1.8761,-1.8749,-1.875,-1.875,-1.875,-1.875,-1.8409,-1.8417,-1.8444,-1.8463,-1.8482,-1.8501,-1.8512,-1.8535,-1.8553,-1.8579,-1.8596,-1.8616,-1.8643,-1.8681,-1.8697,-1.8714,-1.8722,-1.8723,-1.8723,-1.8722,-1.872,-1.8729,-1.8719,-1.8719,-1.872,-1.872,-1.872,0,-1.8387,-1.8406,-1.8424,-1.8452,-1.8468,-1.8484,-1.8508,-1.852,-1.8538,-1.8561,-1.858,-1.8605,-1.8627,-1.8655,-1.868,-1.8688,-1.8697,-1.8693,-1.8692,-1.8696,-1.8712,-1.8709,-1.8685,-1.8685,-1.8685,-1.8685,-1.8685,-1.8685,-1.8377,-1.8392,-1.8408,-1.8433,-1.8452,-1.8472,-1.8485,-1.8503,-1.8522,-1.8548,-1.8566,-1.8585,-1.8611,-1.8637,-1.8658,-1.8666,-1.8674,-1.8667,-1.8678,-1.8692,-1.8695,-1.8698,-1.8695,-1.8669,-1.8669,-1.866,-1.866,-1.866]},{"header":{"parameterUnit":"m.s-1","parameterCategory":1,"la1":30.2991,"la2":30.254,"lo1":-89.0895,"lo2":-89.0444,"dy":0.0017,"dx":0.0017,"nx":28,"ny":28,"refTime":"2025-04-16T21:00:00:Z","depth":0,"parameterNumber":3,"parameterNumberName":"V-component_of_WINDS"},"data":[0,0,0,0,0,0,0,0,0,0,0,0,0,0,0,0,0,0,0,0,0,0,0,0,0,0,0,0,0,0,0,0,0,0,0,0,0,0,0,0,0,0,0,0,0,0,0,0,0,0,0,0,0,0,0,0,0,0,4.2602,4.2602,0,4.2598,4.2598,4.2598,4.2574,4.2573,4.2573,4.2572,4.2566,4.2567,4.2567,0,0,0,0,0,0,0,0,0,0,0,0,0,4.259,4.259,4.2602,4.2602,4.2602,4.2598,4.2598,4.2598,4.2574,4.2573,4.2573,4.2572,4.2566,4.2567,4.2567,0,0,0,0,0,0,0,0,0,0,0,0,0,4.2591,4.259,4.2602,4.259,4.2589,4.2598,4.2598,4.2598,4.2574,4.2573,4.2573,4.2572,4.2566,4.2567,4.2567,4.2587,0,0,4.2569,4.2569,0,0,0,0,0,0,0,0,4.2591,4.2592,4.2592,4.2591,4.259,4.2586,4.2591,4.2594,4.2574,4.258,4.2572,4.2571,4.2573,4.2573,4.2574,4.2587,4.2587,4.2569,4.2569,4.257,4.257,0,0,0,0,0,0,0,4.2591,4.2592,4.26,4.2592,4.259,4.2584,4.2584,4.2592,4.2581,4.2579,4.2577,4.2577,4.2573,4.2574,4.2574,4.2587,4.2569,4.2569,4.257,4.257,4.2618,4.2619,0,0,0,0,0,0,4.2593,4.2592,4.2601,4.26,4.2588,4.2585,4.2584,4.2588,4.2581,4.2579,4.2578,4.2576,4.2573,4.2573,4.2574,4.2599,4.257,4.257,4.257,4.2617,4.2618,4.2619,0,0,0,0,0,0,4.2593,4.2594,4.2601,4.2596,4.2596,4.2586,4.259,4.2588,4.2589,4.258,4.2578,4.2581,4.2573,4.2573,4.2585,4.2598,4.257,4.2571,4.2616,4.2617,4.2619,4.2648,0,0,0,0,0,0,4.2592,4.2594,4.2602,4.2596,4.2596,4.2612,4.2591,4.2589,4.2591,4.2588,4.2583,4.2581,4.2572,4.2584,4.2585,4.2598,4.2571,4.2615,4.2617,4.2618,4.2646,4.265,4.2654,0,0,0,0,0,4.2592,4.2609,4.2602,4.2603,4.2606,4.2613,4.2613,4.2603,4.2592,4.26,4.2594,4.2581,4.2596,4.2586,4.2587,4.26,4.2614,4.2616,4.2618,4.2644,4.265,4.2654,0,0,0,0,0,0,4.2616,4.2608,4.26,4.2616,4.2616,4.2609,4.2619,4.2609,4.2611,4.2608,4.2595,4.2594,4.2608,4.2605,4.2593,4.262,4.2603,4.2605,4.2622,4.2627,4.2631,4.2633,4.2572,0,0,0,0,0,4.2623,4.263,4.2623,4.2638,4.2638,4.2628,4.2631,4.2623,4.2622,4.2621,4.2616,4.2615,4.262,4.2623,4.2626,4.2645,4.2644,4.2655,4.2659,4.2662,4.2665,4.2677,4.2682,4.2626,4.2626,4.2626,0,0,4.2638,4.2635,4.264,4.2642,4.2641,4.2649,4.2628,4.2637,4.2642,4.2622,4.2634,4.263,4.2628,4.2644,4.2651,4.2642,4.268,4.2665,4.2668,4.2669,4.2679,4.2685,4.2689,4.2628,4.2628,4.2627,0,0,4.267,4.2667,4.2681,4.268,4.2678,4.2672,4.2675,4.267,4.2668,4.2679,4.2665,4.2671,4.2678,4.2678,4.2679,4.2711,4.2701,4.2713,4.2735,4.2746,4.2751,4.2755,4.2768,4.2773,4.2715,4.2715,4.2715,0,4.2689,4.27,4.2688,4.2699,4.2701,4.2683,4.2697,4.2697,4.2696,4.2698,4.2688,4.2698,4.2695,4.2712,4.272,4.272,4.2725,4.2714,4.2751,4.2755,4.2758,4.2771,4.2776,4.2717,4.2717,4.2717,4.2716,0,4.2724,4.2732,4.2743,4.2745,4.2748,4.2759,4.275,4.2754,4.2746,4.2741,4.2753,4.2749,4.2752,4.2755,4.2747,4.2771,4.2766,4.2753,4.2736,4.2765,4.2778,4.2782,4.2719,4.2719,4.2718,4.2718,0,0,4.2772,4.2767,4.2772,4.2773,4.277,4.2776,4.2787,4.2791,4.2796,4.2796,4.2806,4.2813,4.2802,4.2803,4.2794,4.2804,4.2833,4.2791,4.279,4.2801,4.2862,4.2873,4.2879,4.2825,4.2825,4.2826,4.2863,0,4.2804,4.2824,4.2815,4.2836,4.2844,4.2827,4.2837,4.2837,4.2832,4.2838,4.2833,4.2839,4.2823,4.2824,4.2832,4.2827,4.2845,4.2824,4.2835,4.2835,4.2838,4.2884,4.2896,4.2931,4.2867,4.2868,4.2868,0,4.2845,4.2849,4.2871,4.2868,4.2871,4.288,4.2884,4.289,4.2889,4.2885,4.2887,4.2876,4.2887,4.2868,4.2884,4.287,4.2873,4.2872,4.2873,4.2875,4.2855,4.289,4.2941,4.2947,4.2875,4.2874,4.2874,0,4.2881,4.289,4.2906,4.2907,4.2903,4.2911,4.2909,4.2908,4.2911,4.2914,4.2916,4.292,4.2922,4.2925,4.2916,4.2903,4.2934,4.2914,4.2932,4.2932,4.2941,4.2941,4.2995,4.2939,4.2939,4.2939,4.2939,0,4.2919,4.2934,4.2922,4.2932,4.2948,4.2936,4.2953,4.2949,4.2948,4.2957,4.2942,4.295,4.2936,4.2944,4.2936,4.2951,4.2952,4.295,4.2948,4.2953,4.2953,4.2956,4.2955,4.294,4.294,4.294,4.2939,0,4.2963,4.2955,4.2971,4.2967,4.2966,4.2979,4.2975,4.2984,4.2978,4.2989,4.2991,4.2982,4.299,4.2981,4.2987,4.2982,4.3004,4.2997,4.3005,4.3004,4.3023,4.3023,4.3084,4.3092,4.3028,4.3029,4.3029,0,4.2989,4.3001,4.2998,4.3004,4.3004,4.3012,4.3016,4.3004,4.3009,4.3009,4.3019,4.3025,4.303,4.3043,4.3038,4.3043,4.3038,4.3059,4.3038,4.3043,4.3041,4.3042,4.3044,4.3064,4.3064,4.3065,4.3065,0,4.3038,4.3034,4.304,4.3046,4.3052,4.3055,4.3057,4.3062,4.305,4.3056,4.3065,4.3069,4.3076,4.3084,4.3088,4.3086,4.3075,4.3072,4.3077,4.3083,4.3088,4.3088,4.3019,4.3071,4.307,4.307,4.307,4.3069,4.3076,4.3086,4.3086,4.3094,4.3095,4.3098,4.3107,4.3103,4.3109,4.3116,4.3108,4.3119,4.3118,4.3122,4.3122,4.3131,4.3122,4.3128,4.313,4.3133,4.3137,4.3084,4.3131,4.3131,4.313,4.313,4.313,0,4.3126,4.3125,4.3133,4.3137,4.3144,4.3132,4.3134,4.3141,4.3151,4.3152,4.3157,4.3168,4.3175,4.317,4.3176,4.3184,4.3179,4.3186,4.3187,4.3187,4.3143,4.314,4.319,4.319,4.319,4.319,4.319,4.319,4.3153,4.317,4.3166,4.3184,4.3183,4.3194,4.3197,4.32,4.3201,4.3213,4.322,4.3216,4.3215,4.3221,4.3227,4.3225,4.323,4.3239,4.3236,4.3196,4.319,4.3184,4.3181,4.324,4.324,4.328,4.328,4.328]}]]